Weather History for Elkins, WV

Change the Weather History Date:

Saturday, April 21, 2012

  Actual Average Record
Temperature  
Mean Temperature 57 °F 51 °F  
Max Temperature 67 °F 65 °F 83 °F (1954)
Min Temperature 46 °F 38 °F 19 °F (1904)
Degree Days  
Heating Degree Days 8 14  
Month to date heating degree days 293 352  
Since 1 July heating degree days 4481 5453  
Cooling Degree Days 0 0  
Month to date cooling degree days 0 0  
Year to date cooling degree days 0 0  
Growing Degree Days 6 (Base 50)    
Moisture  
Dew Point 48 °F    
Average Humidity 73    
Maximum Humidity 89    
Minimum Humidity 56    
Precipitation  
Precipitation 0.25 in 0.13 in 1.27 in (2002)
Month to date precipitation 0.71 2.63  
Year to date precipitation 10.20 12.92  
Snow  
Snow 0.00 in - - ()
Month to date snowfall T  
Since 1 September snowfall 30.4  
Snow Depth 0.00 in    
Sea Level Pressure  
Sea Level Pressure 29.82 in    
Wind  
Wind Speed 4 mph (NW)    
Max Wind Speed 17 mph    
Max Gust Speed 23 mph    
Visibility 7 miles    
Events Rain    
T = Trace of Precipitation, MM = Missing Value Source: NWS Daily Summary

Daily Weather History Graph

Daily Weather History Graph

Search for Another Location

Airport:

Trip Planner

Search our weather history database for the weather conditions in past years. The results will help you decide how hot, cold, wet, or windy it might be!

Date:

Astronomy

Apr. 21, 2012 Rise Set
Actual Time 6:33 AM EDT 8:02 PM EDT
Civil Twilight 6:05 AM EDT 8:30 PM EDT
Nautical Twilight 5:32 AM EDT 9:04 PM EDT
Astronomical Twilight 4:56 AM EDT 9:40 PM EDT
Moon 6:29 AM EDT (4/21) 8:41 PM EDT (4/21)
Length of Visible Light 14h 24m
Length of Day
13h 28m
New Moon, 0% of the Moon is Illuminated
Apr 21
New Moon
Apr 29
First Quarter
May 5
Full
May 12
Last Quarter
May 20
New

Hourly Weather History & Observations

Time (EDT) Temp. Windchill Dew Point Humidity Pressure Visibility Wind Dir Wind Speed Gust Speed Precip Events Conditions
12:51 AM 64.0 °F - 48.0 °F 56% 29.79 in 10.0 mi South 5.8 mph - N/A   Overcast
1:51 AM 62.1 °F - 48.0 °F 60% 29.79 in 10.0 mi SSE 4.6 mph - N/A   Overcast
2:51 AM 61.0 °F - 48.9 °F 64% 29.78 in 10.0 mi SSE 4.6 mph - 0.00 in   Overcast
3:51 AM 57.9 °F - 48.0 °F 70% 29.77 in 10.0 mi SSE 4.6 mph - N/A   Overcast
4:51 AM 52.0 °F - 46.9 °F 83% 29.77 in 10.0 mi Calm Calm - N/A   Clear
5:51 AM 50.0 °F - 46.4 °F 87% 29.79 in 10.0 mi Calm Calm - N/A   Partly Cloudy
6:51 AM 50.0 °F - 46.9 °F 89% 29.78 in 10.0 mi Calm Calm - N/A   Mostly Cloudy
7:51 AM 53.1 °F - 48.9 °F 86% 29.78 in 10.0 mi Calm Calm - N/A   Mostly Cloudy
8:51 AM 60.1 °F - 50.0 °F 69% 29.78 in 10.0 mi Calm Calm - N/A   Mostly Cloudy
9:51 AM 62.1 °F - 50.0 °F 65% 29.79 in 8.0 mi West 11.5 mph - 0.00 in Rain Light Rain
10:51 AM 63.0 °F - 52.0 °F 67% 29.78 in 10.0 mi WSW 4.6 mph - 0.00 in   Overcast
11:51 AM 64.0 °F - 50.0 °F 60% 29.77 in 10.0 mi West 9.2 mph - N/A   Overcast
12:43 PM 55.4 °F - 50.0 °F 82% 29.81 in 3.0 mi NNW 5.8 mph 19.6 mph 0.01 in Rain Heavy Rain
12:47 PM 55.4 °F - 50.0 °F 82% 29.82 in 1.8 mi NW 12.7 mph 19.6 mph 0.04 in Rain Heavy Rain
12:51 PM 54.0 °F - 48.0 °F 80% 29.82 in 1.8 mi Variable 6.9 mph 19.6 mph 0.06 in Rain Rain
12:55 PM 53.6 °F - 48.2 °F 82% 29.82 in 3.0 mi NNW 10.4 mph 19.6 mph 0.00 in Rain Rain
1:13 PM 53.6 °F - 48.2 °F 82% 29.82 in 4.0 mi NNW 8.1 mph - 0.04 in Rain Rain
1:32 PM 53.6 °F - 50.0 °F 88% 29.83 in 6.0 mi Variable 3.5 mph - 0.06 in Rain Light Rain
1:49 PM 53.6 °F - 50.0 °F 88% 29.82 in 10.0 mi ESE 5.8 mph - 0.06 in Rain Light Rain
1:51 PM 53.1 °F - 50.0 °F 89% 29.82 in 10.0 mi SE 5.8 mph - 0.06 in Rain Light Rain
2:43 PM 55.4 °F - 48.2 °F 77% 29.82 in 10.0 mi Calm Calm - 0.00 in   Overcast
2:51 PM 55.0 °F - 48.9 °F 80% 29.83 in 10.0 mi West 4.6 mph - 0.00 in Rain Light Rain
3:08 PM 55.4 °F - 48.2 °F 77% 29.82 in 7.0 mi WNW 3.5 mph - 0.01 in Rain Light Rain
3:21 PM 55.4 °F - 48.2 °F 77% 29.81 in 10.0 mi Calm Calm - 0.01 in Rain Light Rain
3:51 PM 54.0 °F - 48.0 °F 80% 29.82 in 10.0 mi NW 4.6 mph - 0.01 in Rain Light Rain
4:24 PM 53.6 °F - 48.2 °F 82% 29.83 in 2.5 mi NW 5.8 mph - 0.05 in Rain Rain
4:32 PM 53.6 °F - 48.2 °F 82% 29.84 in 4.0 mi NW 4.6 mph - 0.06 in Rain Light Rain
4:51 PM 53.1 °F - 48.9 °F 86% 29.85 in 10.0 mi WNW 6.9 mph - 0.06 in Rain Light Rain
5:51 PM 52.0 °F - 48.9 °F 89% 29.86 in 4.0 mi Calm Calm - 0.05 in Rain Light Rain
6:51 PM 53.1 °F - 48.9 °F 86% 29.83 in 10.0 mi Calm Calm - 0.01 in   Overcast
6:59 PM 53.6 °F - 48.2 °F 82% 29.82 in 10.0 mi WNW 3.5 mph - N/A   Overcast
7:25 PM 51.8 °F - 48.2 °F 88% 29.83 in 10.0 mi NNW 3.5 mph - N/A   Overcast
7:51 PM 52.0 °F - 48.0 °F 86% 29.85 in 10.0 mi Calm Calm - N/A   Overcast
8:21 PM 51.8 °F - 48.2 °F 88% 29.85 in 5.0 mi NW 8.1 mph - 0.01 in Rain Light Rain
8:51 PM 50.0 °F - 46.9 °F 89% 29.87 in 4.0 mi NW 6.9 mph - 0.02 in Rain Light Rain
8:56 PM 50.0 °F - 46.4 °F 87% 29.86 in 5.0 mi NNW 4.6 mph - 0.00 in Rain Light Rain
9:36 PM 48.2 °F - 46.4 °F 93% 29.87 in 4.0 mi NNW 5.8 mph - 0.00 in   Overcast
9:51 PM 48.0 °F - 46.0 °F 93% 29.88 in 3.0 mi North 8.1 mph - 0.00 in Rain Light Rain
9:58 PM 46.4 °F 44.3 °F 46.4 °F 100% 29.87 in 2.5 mi NNW 4.6 mph - 0.00 in Rain Light Rain
10:22 PM 46.4 °F 43.5 °F 46.4 °F 100% 29.87 in 4.0 mi NW 5.8 mph - 0.01 in Rain Light Rain
10:51 PM 46.9 °F - 45.0 °F 93% 29.87 in 3.0 mi North 4.6 mph - 0.01 in Rain Light Rain
11:27 PM 46.4 °F 42.4 °F 44.6 °F 93% 29.85 in 6.0 mi NNW 8.1 mph - 0.00 in   Overcast
11:51 PM 46.0 °F 43.1 °F 44.1 °F 93% 29.86 in 7.0 mi NNW 5.8 mph - 0.00 in   Overcast